Stations météo

réclame
Mon MeteoGroup
Biscarosse, France (7503): Température de l'air & dewpoint: 14.10.2018 19:00:00 - 20.10.2018 19:00:00 (CEST)Biscarosse, France (7503): Température de l'air 5cm: 14.10.2018 19:00:00 - 20.10.2018 19:00:00 (CEST)Biscarosse, France (7503): Température de l'air -20cm & Température de l'air -100cm: 14.10.2018 19:00:00 - 20.10.2018 19:00:00 (CEST)Biscarosse, France (7503): Vitesse du vent & gusts: 14.10.2018 19:00:00 - 20.10.2018 19:00:00 (CEST)Biscarosse, France (7503): Direction du vent: 14.10.2018 19:00:00 - 20.10.2018 19:00:00 (CEST)Biscarosse, France (7503): reduced air pressure: 14.10.2018 19:00:00 - 20.10.2018 19:00:00 (CEST)Biscarosse, France (7503): visibility: 14.10.2018 19:00:00 - 20.10.2018 19:00:00 (CEST)Biscarosse, France (7503): Ensoleillement: 14.10.2018 19:00:00 - 20.10.2018 19:00:00 (CEST)Biscarosse, France (7503): Quantités de précipitations: 14.10.2018 19:00:00 - 20.10.2018 19:00:00 (CEST)
Date & Time tt [°C] td [°C] tt 5cm [°C] tt -20cm [°C] tt -100cm [°C] ff [km/h] ff [knt] fx [km/h] fx [knt] dd ppp [hPa] vv [km] sd [min] rr [mm]
20.10.2018 19:00:00 16,3 14,1 15,8 20,0 20,4 10 6 15 8 NNW 1024,3 8 21 0,0
20.10.2018 18:00:00 17,0 13,7 17,7 19,7 20,4 11 6 16 9 NNW 1024,1 9 60 0,0
20.10.2018 17:00:00 18,1 14,0 24,4 19,3 20,4 9 5 14 8 WNW 1024,3 10 60 0,0
20.10.2018 16:00:00 19,0 13,8 25,8 18,8 20,4 9 5 13 7 NW 1024,4 13 60 0,0
20.10.2018 15:00:00 19,1 13,9 27,0 18,3 20,4 9 5 10 6 WNW 1024,6 13 60 0,0
20.10.2018 14:00:00 19,2 13,8 25,8 17,8 20,4 7 4 12 7 WNW 1025,0 14 60 0,0
20.10.2018 13:00:00 19,3 13,2 21,8 17,6 20,4 6 3 15 8 E 1025,2 19 60 0,0
20.10.2018 12:00:00 16,6 12,3 17,8 17,6 20,4 6 4 22 12 ESE 1025,2 13 60 0,0
20.10.2018 11:00:00 14,6 11,9 15,8 17,7 20,4 13 7 23 12 ENE 1025,0 6 60 0,0
20.10.2018 10:00:00 13,5 11,9 12,4 17,8 20,4 12 7 20 11 E 1024,4 5 45 0,0
20.10.2018 09:00:00 12,5 11,7 10,8 18,0 20,4 11 6 17 9 ENE 1023,9 3,9 0 0,0
20.10.2018 08:00:00 11,8 11,2 9,8 18,2 20,4 5 3 10 5 NE 1023,0 4,0 0 0,0
20.10.2018 07:00:00 11,8 11,0 9,9 18,4 20,4 5 3 9 5 NNE 1022,8 3,7 0 0,0
20.10.2018 06:00:00 12,5 11,2 10,6 18,6 20,4 3 2 11 6 SE 1022,5 5 0 0,0
20.10.2018 05:00:00 13,5 11,7 12,2 18,8 20,4 4 2 28 15 NNE 1022,0 8 0 0,0
20.10.2018 04:00:00 14,2 11,9 13,6 19,0 20,4 14 7 23 13 E 1021,5 10 0 0,0
20.10.2018 03:00:00 14,6 12,1 14,0 19,2 20,4 15 8 27 15 E 1021,4 10 0 0,0
20.10.2018 02:00:00 14,9 12,2 14,4 19,4 20,4 16 9 29 16 ENE 1021,4 10 0 0,0
20.10.2018 01:00:00 15,4 12,3 14,8 19,6 20,4 16 9 31 17 E 1021,5 12 0 0,0
20.10.2018 00:00:00 15,8 12,5 15,3 19,8 20,4 17 9 32 17 ENE 1021,6 13 0 0,0
19.10.2018 23:00:00 16,7 12,4 16,1 20,0 20,4 17 9 29 16 ENE 1021,4 18 0 0,0
19.10.2018 22:00:00 17,3 12,4 14,7 20,1 20,4 10 6 13 7 NE 1021,2 20 0 0,0
19.10.2018 21:00:00 16,8 12,7 14,7 20,2 20,4 8 4 11 6 NE 1020,5 20 0 0,0
19.10.2018 20:00:00 17,6 13,9 15,7 20,2 20,5 10 5 11 6 NNE 1019,7 15 0 0,0
19.10.2018 19:00:00 18,2 14,9 17,4 20,0 20,4 8 4 12 7 N 1018,8 7 20 0,0
19.10.2018 18:00:00 19,2 15,3 19,6 19,7 20,5 8 4 23 12 N 1018,5 8 60 0,0
19.10.2018 17:00:00 18,9 15,0 24,8 19,3 20,5 19 10 32 17 N 1018,6 10 60 0,0
19.10.2018 16:00:00 19,1 14,1 26,3 18,8 20,5 24 13 31 17 N 1018,3 11 60 0,0
19.10.2018 15:00:00 19,2 13,8 26,5 18,3 20,5 13 7 18 10 NNW 1018,5 13 60 0,0
19.10.2018 14:00:00 18,9 13,5 25,9 17,9 20,5 15 8 18 10 N 1019,0 14 60 0,0
19.10.2018 13:00:00 18,7 13,5 24,4 17,5 20,5 7 4 13 7 NW 1019,6 12 60 0,0
19.10.2018 12:00:00 18,7 12,4 22,1 17,5 20,5 6 3 13 7 NE 1019,5 19 60 0,0
19.10.2018 11:00:00 16,9 12,2 19,2 17,5 20,5 5 3 21 11 E 1019,0 20 60 0,0
19.10.2018 10:00:00 15,5 12,1 14,7 17,6 20,5 11 6 21 11 E 1018,4 15 60 0,0
19.10.2018 09:00:00 14,1 11,8 13,2 17,8 20,5 11 6 21 11 ENE 1017,3 15 13 0,0
19.10.2018 08:00:00 13,8 11,5 13,2 17,9 20,5 10 5 16 9 ENE 1017,2 15 0 0,0
19.10.2018 07:00:00 13,7 11,4 13,0 18,1 20,5 6 3 11 6 NE 1017,4 20 0 0,0
19.10.2018 06:00:00 14,3 12,0 13,5 18,2 20,5 4 2 21 11 NE 1017,5 18 0 0,0
19.10.2018 05:00:00 15,0 12,1 14,2 18,3 20,5 13 7 22 12 E 1017,3 20 0 0,0
19.10.2018 04:00:00 15,5 12,3 12,3 18,5 20,5 11 6 20 11 ENE 1017,1 20 0 0,0
19.10.2018 03:00:00 14,7 12,6 12,8 18,7 20,5 0 0 11 6 N 1017,1 19 0 0,2
19.10.2018 02:00:00 14,9 13,1 13,4 18,9 20,6 6 3 8 4 N 1016,9 17 0 0,0
19.10.2018 01:00:00 15,3 13,7 13,9 19,0 20,5 3 1 11 6 N 1017,0 17 0 0,0
19.10.2018 00:00:00 15,1 13,6 13,5 19,2 20,5 2 1 8 4 NE 1017,0 19 0 0,0
18.10.2018 23:00:00 14,6 13,5 13,5 19,3 20,6 5 3 7 4 E 1017,1 9 0 0,0
18.10.2018 22:00:00 15,3 14,3 14,1 19,5 20,6 2 1 11 6 E 1016,8 3,0 0 0,0
18.10.2018 21:00:00 16,1 14,6 14,6 19,5 20,6 3 2 6 3 NNW 1016,4 7 0 0,0
18.10.2018 20:00:00 16,7 15,4 16,0 19,5 20,6 2 1 7 4 NNE 1016,0 3,6 0 0,0
18.10.2018 19:00:00 17,3 15,5 16,6 19,4 20,6 3 1 10 5 N 1015,4 4,4 0 0,0
18.10.2018 18:00:00 18,1 15,5 18,8 19,2 20,6 8 4 15 8 N 1015,2 6 0 0,0
18.10.2018 17:00:00 18,6 15,7 20,9 19,0 20,6 12 7 17 9 N 1015,2 10 23 0,0
18.10.2018 16:00:00 18,9 15,9 22,5 18,8 20,6 12 7 17 9 N 1015,4 8 1 0,0
18.10.2018 15:00:00 18,7 16,5 18,7 18,6 20,6 8 4 11 6 NNW 1015,6 9 0 0,0
18.10.2018 14:00:00 17,5 15,3 18,9 18,3 20,7 6 3 8 4 NW 1015,9 6 0 0,0
18.10.2018 13:00:00 19,8 15,2 19,5 18,1 20,7 6 4 9 5 NW 1016,4 20 24 0,0
18.10.2018 12:00:00 16,7 15,1 18,0 18,0 20,6 4 2 14 8 NE 1016,6 18 5 0,0
18.10.2018 11:00:00 16,0 14,9 16,6 18,1 20,7 9 5 16 9 ESE 1016,3 13 8 0,0
18.10.2018 10:00:00 15,2 14,9 14,4 18,1 20,7 9 5 16 8 E 1016,1 4,9 11 0,0
18.10.2018 09:00:00 14,8 14,2 13,2 18,3 20,7 5 3 9 5 ENE 1015,7 2,8 0 0,0
18.10.2018 08:00:00 14,7 14,1 13,4 18,4 20,6 5 3 9 5 ENE 1015,3 5 0 0,0
18.10.2018 07:00:00 15,2 14,1 14,4 18,5 20,6 6 3 9 5 ENE 1015,1 7 0 0,0
18.10.2018 06:00:00 15,2 14,1 14,1 18,6 20,6 5 3 8 5 NE 1015,1 14 0 0,0
18.10.2018 05:00:00 15,5 14,0 14,3 18,7 20,6 6 3 16 9 ENE 1014,8 16 0 0,0
18.10.2018 04:00:00 16,1 14,3 15,6 18,8 20,7 12 6 19 10 ENE 1014,9 20 0 0,0
18.10.2018 03:00:00 16,2 14,0 16,0 18,9 20,6 13 7 22 12 E 1015,5 20 0 0,0
18.10.2018 02:00:00 16,1 13,8 15,7 19,1 20,7 11 6 19 11 ENE 1015,8 20 0 0,0
18.10.2018 01:00:00 15,8 13,8 14,9 19,2 20,7 8 4 16 9 ENE 1015,9 20 0 0,0
18.10.2018 00:00:00 15,4 14,1 14,5 19,4 20,7 9 5 14 7 ENE 1016,1 12 0 0,0
17.10.2018 23:00:00 15,8 14,5 15,0 19,6 20,7 9 5 16 8 NE 1016,0 19 0 0,0
17.10.2018 22:00:00 16,0 14,4 14,9 19,7 20,7 7 4 13 7 NE 1015,7 20 0 0,0
17.10.2018 21:00:00 16,3 14,0 15,7 19,8 20,7 10 5 22 12 ENE 1015,6 20 0 0,0
17.10.2018 20:00:00 16,9 14,2 16,2 19,8 20,7 10 5 16 9 ENE 1015,2 20 0 0,0
17.10.2018 19:00:00 17,9 14,4 17,9 19,7 20,8 8 4 17 9 E 1015,1 20 0 0,0
17.10.2018 18:00:00 18,6 14,7 19,3 19,5 20,7 6 4 14 8 ENE 1014,8 20 0 0,0
17.10.2018 17:00:00 18,7 15,0 20,1 19,2 20,7 14 8 22 12 N 1015,3 6 0 0,0
17.10.2018 16:00:00 19,3 14,3 20,7 18,9 20,8 6 3 16 9 ENE 1015,6 20 0 0,0
17.10.2018 15:00:00 19,7 14,1 21,9 18,6 20,8 9 5 18 10 NNE 1016,0 20 5 0,0
17.10.2018 14:00:00 18,3 14,4 20,7 18,2 20,8 10 5 13 7 NNW 1016,9 12 3 0,0
17.10.2018 13:00:00 18,9 13,7 21,4 17,9 20,8 10 6 16 9 NW 1017,4 13 52 0,0
17.10.2018 12:00:00 16,8 13,7 18,2 17,9 20,8 6 4 13 7 ENE 1018,1 20 4 0,0
17.10.2018 11:00:00 15,6 13,1 14,6 17,9 20,8 7 4 10 6 NNW 1018,5 20 4 0,0
17.10.2018 10:00:00 13,7 12,3 13,1 17,9 20,8 5 3 10 5 NNE 1018,5 19 0 0,0
17.10.2018 09:00:00 13,3 11,7 12,3 18,0 20,8 0 0 6 3 N 1018,6 20 0 0,0
17.10.2018 08:00:00 13,7 11,6 13,0 18,2 20,8 4 2 13 7 WSW 1018,5 20 0 0,0
17.10.2018 07:00:00 13,5 11,4 12,7 18,3 20,8 8 4 15 8 ENE 1018,6 20 0 0,0
17.10.2018 06:00:00 12,9 11,6 11,3 18,5 20,8 8 5 16 9 NNE 1018,5 20 0 0,0
17.10.2018 05:00:00 12,3 10,9 11,0 18,7 20,8 8 4 12 6 NNE 1018,6 20 0 0,0
17.10.2018 04:00:00 12,2 10,8 11,1 18,9 20,8 8 5 14 8 NNE 1018,8 20 0 0,0
17.10.2018 03:00:00 12,8 11,2 10,9 19,1 20,8 7 4 11 6 N 1019,3 20 0 0,0
17.10.2018 02:00:00 13,0 11,1 11,7 19,3 20,8 5 3 9 5 NE 1019,5 20 0 0,0
17.10.2018 01:00:00 13,9 11,6 13,0 19,6 20,8 8 4 13 7 N 1019,8 20 0 0,0
17.10.2018 00:00:00 13,7 10,9 13,0 19,7 20,8 9 5 15 8 ENE 1020,1 20 0 0,0
16.10.2018 23:00:00 14,0 12,0 13,4 19,9 20,9 6 4 23 13 ENE 1020,3 19 0 0,0
16.10.2018 22:00:00 15,2 12,7 14,3 20,1 20,9 16 9 29 15 N 1020,0 6 0 0,0
16.10.2018 21:00:00 15,4 13,2 14,1 20,1 20,8 21 11 29 15 N 1019,7 7 0 0,0
16.10.2018 20:00:00 15,5 13,0 14,5 20,2 20,9 18 10 27 15 N 1019,4 4,3 0 0,0
16.10.2018 19:00:00 16,4 12,9 16,3 20,1 20,9 19 11 31 17 N 1018,8 7 19 0,0
16.10.2018 18:00:00 17,8 13,3 18,3 19,8 20,9 21 11 29 15 N 1018,5 10 60 0,0
16.10.2018 17:00:00 18,5 13,8 25,0 19,4 20,9 21 11 28 15 NNW 1018,3 20 60 0,0
16.10.2018 16:00:00 18,6 13,7 25,6 18,9 20,9 22 12 29 15 NNW 1018,4 20 60 0,0
16.10.2018 15:00:00 18,3 13,8 25,8 18,4 21,0 16 9 20 11 NNW 1018,2 17 60 0,0
16.10.2018 14:00:00 18,8 13,6 24,9 18,0 21,0 16 9 20 11 NNW 1018,1 19 58 0,0
16.10.2018 13:00:00 19,7 11,5 24,6 17,7 21,0 7 4 16 9 N 1018,1 20 60 0,0
16.10.2018 12:00:00 18,2 12,9 21,5 17,6 21,0 10 5 19 10 ENE 1017,7 20 60 0,0
16.10.2018 11:00:00 16,6 12,9 19,9 17,6 21,0 10 5 21 11 ENE 1017,5 20 60 0,0
16.10.2018 10:00:00 14,6 12,6 12,9 17,7 21,0 9 5 13 7 E 1017,1 20 60 0,0
16.10.2018 09:00:00 12,6 12,1 10,9 17,9 21,0 9 5 14 8 E 1016,3 20 14 0,0
16.10.2018 08:00:00 11,8 11,2 11,0 18,0 21,0 7 4 16 8 E 1015,7 19 0 0,0
16.10.2018 07:00:00 12,3 12,0 12,0 18,1 21,0 10 5 15 8 E 1015,2 0,5 0 0,2
16.10.2018 06:00:00 12,8 12,5 12,5 18,3 21,1 8 5 18 10 E 1014,8 0,5 0 0,0
16.10.2018 05:00:00 12,7 12,2 11,3 18,4 21,0 8 5 15 8 ENE 1014,4 0,4 0 0,0
16.10.2018 04:00:00 12,4 11,6 11,0 18,7 21,1 5 3 15 8 NE 1014,2 20 0 0,0
16.10.2018 03:00:00 12,7 11,9 11,6 18,9 21,1 11 6 18 10 E 1013,8 20 0 0,0
16.10.2018 02:00:00 12,8 12,0 11,6 19,1 21,1 9 5 16 9 E 1013,5 20 0 0,0
16.10.2018 01:00:00 13,4 12,1 12,5 19,3 21,1 10 5 14 8 E 1013,2 20 0 0,0
16.10.2018 00:00:00 14,1 12,8 13,5 19,5 21,1 11 6 17 9 E 1012,9 20 0 0,0
15.10.2018 23:00:00 13,9 12,5 12,2 19,7 21,1 10 5 14 8 ENE 1012,6 20 0 0,0
15.10.2018 22:00:00 13,2 11,1 12,3 19,9 21,1 6 3 10 6 NNE 1011,9 20 0 0,0
15.10.2018 21:00:00 13,7 11,7 13,2 20,0 21,2 6 3 11 6 ENE 1011,3 20 0 0,0
15.10.2018 20:00:00 14,9 12,4 13,8 20,1 21,2 7 4 19 10 NE 1010,7 10 0 0,0
15.10.2018 19:00:00 16,2 12,6 15,8 20,0 21,2 15 8 21 12 N 1009,9 10 19 0,0
15.10.2018 18:00:00 17,8 11,4 18,3 19,8 21,2 14 8 20 11 N 1009,5 20 60 0,0
15.10.2018 17:00:00 18,0 12,0 24,1 19,6 21,2 14 8 17 9 NNW 1009,2 20 60 0,0
15.10.2018 16:00:00 18,0 12,0 22,8 19,2 21,2 11 6 14 8 NNW 1008,7 20 53 0,0
15.10.2018 15:00:00 17,3 12,8 21,2 18,9 21,3 7 4 11 6 NW 1008,9 20 9 0,0
15.10.2018 14:00:00 18,0 13,3 18,9 18,7 21,3 5 3 16 9 E 1008,8 20 32 0,0
15.10.2018 13:00:00 16,1 12,6 15,8 18,5 21,3 8 4 13 7 ENE 1008,8 20 26 0,0
15.10.2018 12:00:00 15,1 14,1 15,3 18,5 21,3 5 3 10 5 E 1008,6 13 0 0,2
15.10.2018 11:00:00 15,0 14,4 14,6 18,5 21,3 2 1 9 5 ESE 1008,3 11 0 0,0
15.10.2018 10:00:00 14,3 14,0 13,7 18,6 21,3 4 2 17 9 N 1008,3 7 0 0,0
15.10.2018 09:00:00 13,8 13,3 13,6 18,7 21,3 11 6 14 8 NNW 1007,8 10 0 0,0
15.10.2018 08:00:00 13,8 13,3 13,4 18,8 21,3 3 2 6 3 SE 1007,8 11 0 0,0
15.10.2018 07:00:00 13,7 13,1 13,4 18,9 21,3 0 0 6 4 N 1007,7 11 0 0,2
15.10.2018 06:00:00 13,9 13,4 13,6 19,0 21,3 4 2 7 4 ESE 1007,7 13 0 0,2
15.10.2018 05:00:00 13,9 13,4 13,6 19,2 21,3 5 3 6 3 E 1008,1 10 0 0,0
15.10.2018 04:00:00 14,0 13,5 13,5 19,3 21,3 3 2 5 3 ESE 1008,5 8 0 0,0
15.10.2018 03:00:00 14,0 13,5 13,6 19,5 21,3 0 0 4 2 N 1009,0 12 0 0,0
15.10.2018 02:00:00 14,1 13,5 13,7 19,6 21,3 0 0 3 2 N 1009,1 11 0 0,0
15.10.2018 01:00:00 14,2 13,4 13,7 19,8 21,3 3 1 11 6 SE 1009,4 10 0 0,0
15.10.2018 00:00:00 14,9 13,3 13,7 20,0 21,3 11 6 19 10 WNW 1009,5 12 0 0,0
14.10.2018 23:00:00 15,0 13,4 13,8 20,1 21,3 15 8 30 16 NW 1009,0 15 0 0,0
14.10.2018 22:00:00 15,4 14,3 14,8 20,3 21,3 20 11 27 14 NW 1008,7 10 0 0,0
14.10.2018 21:00:00 15,1 14,5 14,6 20,5 21,3 23 12 40 22 NW 1008,6 9 0 0,0
14.10.2018 20:00:00 15,6 14,8 15,3 20,7 21,3 22 12 29 16 WNW 1008,0 9 0 0,2
14.10.2018 19:00:00 15,6 14,8 15,4 20,8 21,3 25 14 36 19 WNW 1007,2 8 0 0,2

tt = Température de l'air
td = dewpoint
tt 5cm = Température de l'air 5cm
tt -20cm = Température de l'air -20cm
tt -100cm = Température de l'air -100cm
ff = Vitesse du vent
fx = gusts
dd = Direction du vent
ppp = reduced air pressure
vv = visibility
sd = Ensoleillement
rr = Quantités de précipitations

stations d'obs. à proximité